Location: ?????????
(38.5999°N, 22.7695°E)
Time: 03:52:43
(UTC+00:00)

Daily predictions for brighter satellites

Satellite Brightness Start Highest point End
(mag) Time Altitude Azimuth Time Altitude Azimuth Time Altitude Azimuth
CZ-2C R/B 4.4 00:00:21 10° NNE 00:05:41 37° E 00:07:24 30° SE
Cosmos 1850 Rocket 4.0 00:05:59 72° SE 00:06:14 73° ESE 00:11:30 10° NNE
Cosmos 1709 Rocket 4.3 00:05:03 46° SSE 00:06:45 62° E 00:13:00 10° NNE
Cosmos 2082 Rocket 3.4 00:07:01 28° WNW 00:07:57 30° WNW 00:12:56 10° N
SL-16 R/B 4.4 00:04:25 10° ESE 00:09:32 27° ENE 00:14:39 10° N
Cosmos 1741 Rocket 3.9 00:11:00 74° SE 00:11:18 77° ESE 00:16:33 10° NNE
Cosmos 1386 Rocket 4.5 00:10:39 60° SW 00:11:41 70° W 00:18:05 10° N
BREEZE-M DEB (TANK) 4.0 00:13:11 12° WNW 00:16:45 80° SW 00:31:50 10° SE
CZ-2D R/B 2.3 00:14:50 10° NNE 00:20:17 65° ESE 00:21:24 52° SSE
Cosmos 1782 Rocket 3.7 00:18:01 10° N 00:22:22 66° E 00:22:35 64° E
Cosmos 968 Rocket 3.5 00:22:13 62° SSE 00:22:48 68° ESE 00:27:53 10° NNE
Cosmos 2237 4.4 00:17:15 10° NNW 00:23:00 71° ENE 00:25:53 30° SE
Cosmos 1908 Rocket 4.0 00:18:46 10° NNW 00:22:20 50° NW 00:22:20 50° NW
Cosmos 2360 Rocket 3.9 00:20:17 10° N 00:25:19 32° ENE 00:30:19 10° ESE
DELTA 2 R/B (1) 3.5 00:26:16 36° W 00:28:37 81° N 00:34:11 10° E
ATLAS CENTAUR R/B 4.3 00:18:49 10° NW 00:29:40 38° WSW 00:31:03 36° SW
Genesis I 3.8 00:31:57 49° NE 00:31:57 49° NE 00:34:40 10° NE
MSX 3.7 00:25:48 10° NNE 00:31:33 86° WNW 00:32:57 54° SSW
Cosmos 1455 3.8 00:29:42 10° NNW 00:31:18 23° NW 00:31:18 23° NW
Resurs 1-4 Rocket 2.0 00:29:39 10° NNE 00:34:56 87° WNW 00:36:00 58° SSW
Cosmos 841 Rocket 3.4 00:30:32 10° NNW 00:35:44 68° WSW 00:36:21 62° SW
FENGYUN 3A 3.8 00:38:35 10° NNE 00:43:55 65° ESE 00:45:55 38° S
H-2A R/B 4.0 00:40:19 10° N 00:43:49 42° WNW 00:43:49 42° WNW
Cosmos 2278 3.6 00:39:33 10° NNW 00:45:13 65° WSW 00:46:49 45° SSW
OAO 3 Rocket 3.3 00:46:29 56° S 00:46:29 56° S 00:51:10 10° ESE
COBE Rocket 4.4 00:42:52 10° N 00:47:32 45° WNW 00:48:15 42° W
CZ-2C R/B 2.4 00:47:46 43° S 00:49:29 80° WSW 00:54:41 10° NNW
Timation 1 Rocket 4.5 00:49:15 43° WSW 00:51:04 62° WNW 00:56:59 10° NNE
Cosmos 2242 Rocket 3.5 00:53:26 59° WSW 00:53:57 64° W 00:58:23 10° N
USA 234 3.7 00:56:30 36° SW 00:57:02 37° SW 01:03:01 10° WNW
Cosmos 2333 Rocket 3.0 00:52:34 10° NNW 00:58:10 52° ENE 01:03:44 10° SE
Cosmos 1825 4.3 00:59:33 13° SE 01:01:31 20° E 01:04:04 10° NE
BREEZE-M R/B 4.2 00:59:28 30° WSW 01:02:11 73° NNW 01:18:30 10° ENE
Cosmos 2098 Rocket 3.9 00:57:14 10° N 01:02:38 73° E 01:07:56 15° SSE
Cosmos 2322 Rocket 2.2 00:57:20 10° NNW 01:03:00 83° ENE 01:08:41 10° SSE
Meteor 2-5 Rocket 3.8 01:00:31 31° S 01:03:28 84° E 01:09:27 10° N
Cosmos 1814 Rocket 4.2 00:58:47 10° NNW 01:04:00 73° ENE 01:09:15 10° SSE
Cosmos 1892 4.2 01:05:20 18° SE 01:07:09 28° E 01:10:12 10° NNE
SL-27 R/B 3.0 01:08:51 36° NNW 01:08:51 36° NNW 01:10:54 10° N
Cosmos 2074 Rocket 4.3 01:04:02 19° S 01:08:34 64° E 01:14:42 10° NNE
SL-8 R/B 3.5 01:04:27 10° WNW 01:09:12 68° SW 01:13:56 10° SE
Cosmos 1242 Rocket 4.3 01:13:25 15° NW 01:13:25 15° NW 01:14:26 10° NNW
SL-4 R/B 2.2 01:12:39 45° SSW 01:13:47 65° SE 01:18:10 10° ENE
Cosmos 1674 Rocket 3.9 01:15:23 24° SSE 01:17:57 62° E 01:22:21 10° NNE
Okean 2 Rocket 4.0 01:14:36 10° N 01:18:52 48° E 01:23:07 10° SSE
Cosmos 1833 4.2 01:16:21 33° SW 01:18:57 69° WNW 01:24:37 10° NNE
Cosmos 1300 Rocket 4.3 01:16:18 10° NNW 01:20:07 31° W 01:20:25 31° W
Cosmos 1408 4.0 01:21:25 19° NW 01:21:25 19° NW 01:23:02 10° NNW
ADEOS II 2.4 01:16:52 10° N 01:21:55 51° WNW 01:24:13 30° SW
Cosmos 2184 Rocket 4.0 01:21:56 19° S 01:26:37 86° E 01:32:54 10° N
IDEFIX/ARIANE 42P 4.0 01:22:38 10° NNW 01:26:37 22° WNW 01:28:28 19° W
Tiangong -1.4 01:28:20 36° SSE 01:28:31 37° SSE 01:31:24 10° E
Lacrosse 5 rocket 1.1 01:25:20 10° NW 01:29:16 59° SW 01:33:01 10° SSE
ALOS 2.2 01:25:11 10° N 01:29:48 72° WNW 01:32:15 27° SSW
Cosmos 839 Rocket 4.3 01:23:55 10° NNW 01:30:53 77° ENE 01:37:01 10° SE
Cosmos 1378 Rocket 3.5 01:33:03 28° SSW 01:35:11 68° W 01:39:29 10° N
Cosmos 2154 Rocket 4.0 01:32:22 14° S 01:37:50 85° E 01:44:04 10° N
Envisat 3.3 01:35:56 10° NNE 01:40:59 66° ESE 01:45:47 11° S
Cosmos 405 Rocket 2.9 01:37:29 10° N 01:41:03 65° E 01:44:41 10° SSE
Nadezhda 3 Rocket 4.4 01:34:55 10° N 01:41:16 68° E 01:47:31 10° SSE
CZ-2C R/B 3.3 01:36:46 10° NNE 01:41:17 42° E 01:45:38 10° S
SJ 16-02 2.7 01:39:50 20° W 01:41:19 25° WNW 01:44:54 10° N
ATLAS CENTAUR R/B 2.3 01:40:58 16° S 01:43:12 32° ESE 01:46:21 10° NE
ATLAS 2AS CENTAUR R/B 3.4 01:38:15 10° NNW 01:44:57 57° NE 01:51:25 10° SE
CZ-2C R/B 4.3 01:40:18 10° N 01:45:18 31° WNW 01:48:25 19° WSW
Okean 1 Rocket 3.6 01:41:21 10° N 01:45:38 59° E 01:49:53 10° SSE
UNK 3.7 01:41:02 10° S 01:45:39 73° WSW 01:50:18 10° NNW
SL-16 R/B 3.2 01:42:32 10° NW 01:47:02 25° WSW 01:49:03 20° SW
SL-16 R/B 2.8 01:46:47 10° S 01:52:46 47° W 01:58:48 10° NNW
Cosmos 2333 4.2 01:48:42 10° NNW 01:54:25 69° WSW 02:00:07 10° SSE
NOAA 11 4.3 01:50:51 10° NNE 01:56:22 80° ESE 02:01:51 10° S
CZ-2D R/B 4.0 01:56:21 10° NNW 01:59:41 17° WNW 02:02:42 11° W
Meteor 1-28 Rocket 4.5 01:59:45 19° WSW 02:00:25 20° W 02:03:07 10° NW
Cosmos 2219 Rocket 2.2 01:54:58 10° NNW 02:00:39 85° WSW 02:06:19 10° SSE
Thor Agena Rocket 4.0 02:01:17 10° NNE 02:06:28 64° ESE 02:11:41 10° S
COSMOS 2428 3.7 02:03:30 10° NNW 02:09:03 52° ENE 02:14:35 10° SE
Cosmos 2360 Rocket 2.8 02:04:11 10° NW 02:09:16 35° WSW 02:14:20 10° SSW
CZ-4 R/B 3.9 02:06:37 10° N 02:11:15 61° WNW 02:15:57 10° SSW
RESURS DK-1 2.8 02:09:35 10° NW 02:13:20 36° WSW 02:17:03 10° S
Resurs 1-4 Rocket 4.2 02:12:42 10° NW 02:13:53 11° WNW 02:15:03 10° WNW
DELTA 2 R/B (1) 3.6 02:09:31 10° W 02:15:01 62° SSW 02:20:28 10° ESE
Cosmos 1975 Rocket 3.7 02:14:45 10° S 02:18:57 56° E 02:23:10 10° NNE
Cosmos 2327 Rocket 4.5 02:14:08 10° SSW 02:20:19 73° W 02:26:27 10° N
SL-24 DEB 4.1 02:16:41 10° N 02:21:13 83° W 02:25:43 10° S
H-2A R/B 3.3 02:21:12 10° NNE 02:26:23 44° E 02:31:32 10° S
Geosat 4.1 02:22:48 10° S 02:27:42 56° WSW 02:32:38 10° NW
Cosmos 2227 Rocket 4.2 02:23:24 10° SSE 02:28:03 27° ESE 02:32:44 10° NE
OAO 3 Rocket 3.9 02:24:57 10° W 02:29:22 34° SSW 02:33:44 10° SE
Cosmos 1503 Rocket 4.1 02:24:23 10° SSW 02:29:43 85° WNW 02:35:07 10° NNE
ASTEX 1 3.5 02:26:57 10° S 02:31:49 60° W 02:36:41 10° NNW
PAYLOAD A 4.0 02:27:04 10° N 02:31:51 66° WNW 02:36:46 10° SSW
Cosmos 1825 3.6 02:33:16 10° WSW 02:35:39 18° WNW 02:38:02 10° NNW
Cosmos 2333 Rocket 3.5 02:37:52 10° NW 02:41:58 21° W 02:46:05 10° SSW
Cosmos 1025 Rocket 3.8 02:39:32 10° SW 02:43:32 35° WNW 02:47:35 10° N
Cosmos 371 Rocket 3.6 02:39:39 10° SW 02:44:16 49° WNW 02:48:55 10° N
YAOGAN 6 3.3 02:42:00 10° N 02:44:57 30° WNW 02:47:50 10° SW
